Regional Weather Roundup
Issued by NWS

Home | Current Version | Previous Version | Text Only | Print | Product List | Glossary Off
Versions: 1 2 3 4 5 6 7 8 9 10 11 12 13 14 15 16 17 18 19 20 21 22 23 24 25 26 27 28 29 30 31 32 33 34 35 36 37 38 39 40 41 42 43 44 45 46 47 48 49 50

969
ASUS43 KLSX 251210
RWRMO

WEATHER SUMMARY FOR MISSOURI
NATIONAL WEATHER SERVICE SPRINGFIELD MO
700 AM CDT MON JUL 25 2016

NOTE: "FAIR" INDICATES FEW OR NO CLOUDS BELOW 12,000 FEET WITH NO
       SIGNIFICANT WEATHER AND/OR OBSTRUCTIONS TO VISIBILITY.
       CURRENT SKY AND/OR WEATHER CONDITIONS ARE NOT AVAILABLE FOR
       CHILLICOTHE AND FARMINGTON.

MOZ001>031-035>038-043-044-053-054-251300-
...NORTHERN AND WESTERN MISSOURI...

CITY           SKY/WX    TMP DP  RH WIND       PRES   REMARKS
KANSAS CTY INT CLOUDY    73  67  81 NE10      30.06S
6HR MIN TEMP:  73; 6HR MAX TEMP:  78;

KANSAS C DTWN  CLOUDY    75  67  76 NE9       30.04S
6HR MIN TEMP:  75; 6HR MAX TEMP:  82; 6HR PCP:  0.28;

LEE`S SUMMIT   CLOUDY    74  70  87 NE7       30.05S
6HR MIN TEMP:  72; 6HR MAX TEMP:  77; 6HR PCP:  0.67;

ST JOSEPH      CLOUDY    71  65  81 CALM      30.08R
6HR MIN TEMP:  69; 6HR MAX TEMP:  71;

CHILLICOTHE      N/A     73  68  84 VRB5      30.07S
6HR MIN TEMP:  72; 6HR MAX TEMP:  77;

KIRKSVILLE     MOCLDY    71  66  84 N6        30.07R
6HR MIN TEMP:  70; 6HR MAX TEMP:  76;


$$
MOZ066>068-077>081-088>096-101>105-251300-
...SOUTHWEST MISSOURI...

CITY           SKY/WX    TMP DP  RH WIND       PRES   REMARKS
SPRINGFIELD    CLOUDY    79  71  76 VRB6      30.02R THUNDER
6HR MIN TEMP:  78; 6HR MAX TEMP:  82;

JOPLIN         CLOUDY    77  71  82 N9        30.03R
6HR MIN TEMP:  77; 6HR MAX TEMP:  82;

BRANSON        MOCLDY    75  68  78 SW3       30.02S

$$
MOZ032>034-039>042-045>050-055>058-069>072-251300-
...CENTRAL MISSOURI...

CITY           SKY/WX    TMP DP  RH WIND       PRES   REMARKS
COLUMBIA       CLOUDY    73  71  93 VRB3      30.01S
6HR MIN TEMP:  72; 6HR MAX TEMP:  73; 6HR PCP:  1.47;

JEFFERSON CITY CLOUDY    73  71  93 CALM      30.00F
6HR MIN TEMP:  73; 6HR MAX TEMP:  76; 6HR PCP:  0.85;

ROLLA          CLOUDY    71  70  96 NW8       30.03R
6HR MIN TEMP:  71; 6HR MAX TEMP:  81; 6HR PCP:  0.11;

SEDALIA        LGT RAIN  73  71  93 CALM      30.06S
6HR MIN TEMP:  73; 6HR MAX TEMP:  74; 6HR PCP:  0.55;

WHITEMAN AFB   MOCLDY    72  72 100 E5        30.02F
OSAGE BEACH    CLOUDY    73  71  93 VRB6      30.08R

$$
MOZ051-052-059>065-251300-
...EAST CENTRAL MISSOURI...

CITY           SKY/WX    TMP DP  RH WIND       PRES   REMARKS
ST LOUIS INTL  CLOUDY    75  71  87 W7        29.97F
6HR MIN TEMP:  74; 6HR MAX TEMP:  79; 6HR PCP:  1.21;

SPIRIT OF STL  CLOUDY    73  72  96 SW6       29.96F FOG
6HR MIN TEMP:  73; 6HR MAX TEMP:  81;

ST CHARLES     CLOUDY    73  73 100 W7        29.94F
6HR MIN TEMP:  72; 6HR MAX TEMP:  76; 6HR PCP:  0.54;


$$
MOZ072>076-082>087-097>100-106>115-251300-
...SOUTH CENTRAL AND SOUTHEAST MISSOURI...

CITY           SKY/WX    TMP DP  RH WIND       PRES   REMARKS
CAPE GIRARDEAU MOSUNNY   77  75  93 SE3       29.99R FOG
6HR MIN TEMP:  76; 6HR MAX TEMP:  80;

FARMINGTON     CLOUDY    74  72  93 E3        30.02S
6HR MIN TEMP:  73; 6HR MAX TEMP:  79;

POPLAR BLUFF   MOSUNNY   77  75  93 CALM      29.99R FOG
6HR MIN TEMP:  76; 6HR MAX TEMP:  81;

WEST PLAINS    CLOUDY    76  73  91 NE3       30.04S FOG
6HR MIN TEMP:  75; 6HR MAX TEMP:  78;


$$




USA.gov is the U.S. government's official web portal to all federal, state and local government web resources and services.